Flag for Russia Weather past 2 weeks in Murmansk, Russia

Now
55 °F

Partly sunny.


Feels Like: 54 °F
Forecast: 47 / 59 °F
Wind: 6 mph from Northeast

Location: Murmansk Airport

Current Time: Aug 27, 2014 at 4:58:13 PM

Latest Report: Aug 27, 2014 at 4:00 PM


Visibility: N/A

Pressure: 29.74 "Hg

Humidity: 82%

Dew point: 50 °F

Location of MurmanskLocation

Historic Weather in Murmansk — Graph

°F

Murmansk temperature yesterday

Maximum temperature yesterday: 61 °F (at 1:30 PM)
Minimum temperature yesterday: 43 °F (at 4:00 AM)
Average temperature yesterday: 53 °F

Past Weeks' High & Low Weather Summary

 TemperatureHumidityPressure
High72 °F (Aug 13, 5:30 PM)100% (Aug 15, 6:30 AM)29.98 "Hg (Aug 15, 6:30 AM)
Low28 °F (Aug 24, 5:30 AM)38% (Aug 13, 5:30 PM)29.27 "Hg (Aug 20, 8:00 AM)
Average52 °F81%29.64 "Hg
* Reported Aug 12 3:00 PM — Aug 27 3:30 PM, Murmansk, Weather by CustomWeather, © 2014

Note: Actual official high and low records may vary slightly from our data, if they occured in-between our weather recording intervals... More about our weather records

Advertising

Murmansk weather history for previous 24 hours

 ConditionsComfort  
Time TempWeatherWind HumidityBarometerVisibility
3:30 PM
Aug 27
55 °FPartly sunny.6 mph82%29.74 "HgN/A
3:00 PM54 °FPartly sunny.8 mph88%29.74 "HgN/A
2:30 PM54 °FPartly sunny.8 mph88%29.74 "HgN/A
2:00 PM54 °FSprinkles. Partly sunny.8 mph88%29.74 "HgN/A
1:00 PM54 °FSprinkles. Partly sunny.8 mph88%29.74 "HgN/A
12:30 PM54 °FSprinkles. Partly sunny.8 mph88%29.74 "HgN/A
12:00 PM54 °FSprinkles. Partly sunny.8 mph88%29.71 "HgN/A
11:30 AM54 °FSprinkles. Partly sunny.6 mph88%29.71 "HgN/A
11:00 AM54 °FSprinkles. Partly sunny.6 mph88%29.74 "HgN/A
10:30 AM54 °FSprinkles. Partly sunny.6 mph88%29.74 "HgN/A
10:00 AM52 °FSprinkles. Partly sunny.6 mph94%29.74 "HgN/A
9:30 AM52 °FSprinkles. Partly sunny.6 mph88%29.74 "HgN/A
9:00 AM52 °FSprinkles. Partly sunny.3 mph88%29.74 "HgN/A
8:30 AM52 °FSprinkles. Partly sunny.6 mph88%29.74 "HgN/A
8:00 AM52 °FSprinkles. Partly sunny.8 mph88%29.74 "HgN/A
7:30 AM52 °FSprinkles. Partly sunny.6 mph88%29.74 "HgN/A
7:00 AM52 °FSunny.3 mph88%29.74 "Hg10 mi
6:30 AM50 °FClear.1 mph94%29.74 "Hg10 mi
6:00 AM52 °FClear.3 mph88%29.74 "Hg10 mi
5:30 AM52 °FClear.6 mph88%29.74 "Hg10 mi
5:00 AM52 °FClear.6 mph88%29.74 "Hg10 mi
4:00 AM52 °FPassing clouds.6 mph88%29.74 "HgN/A
3:30 AM52 °FPartly cloudy.3 mph88%29.74 "HgN/A
3:00 AM52 °FPartly cloudy.3 mph94%29.74 "HgN/A
2:30 AM52 °FPartly cloudy.3 mph94%29.74 "Hg6 mi
2:00 AM54 °FPartly cloudy.6 mph88%29.74 "Hg6 mi
1:30 AM54 °FPartly cloudy.6 mph88%29.74 "Hg6 mi
1:00 AM54 °FPartly cloudy.1 mph94%29.74 "HgN/A
12:30 AM54 °FPartly cloudy.3 mph94%29.74 "HgN/A
12:00 AM55 °FPartly cloudy.3 mph88%29.74 "HgN/A
11:30 PM
Aug 26
55 °FPartly cloudy.3 mph88%29.74 "Hg6 mi
11:00 PM55 °FPassing clouds.No wind88%29.74 "Hg6 mi
10:30 PM55 °FThunderstorms. Partly sunny.1 mph94%29.77 "Hg5 mi
10:00 PM57 °FThunderstorms. Partly sunny.No wind88%29.77 "Hg5 mi
9:30 PM57 °FThunderstorms. Partly sunny.3 mph88%29.77 "HgN/A
9:00 PM57 °FThunderstorms. Partly sunny.3 mph88%29.77 "HgN/A
8:30 PM59 °FThunderstorms. Partly sunny.3 mph82%29.77 "HgN/A
8:00 PM59 °FPartly sunny.3 mph82%29.77 "HgN/A
7:30 PM59 °FPartly sunny.3 mph82%29.77 "HgN/A
7:00 PM61 °FPartly sunny.6 mph77%29.77 "HgN/A
6:30 PM59 °FPartly sunny.3 mph82%29.80 "HgN/A
6:00 PM59 °FPartly sunny.3 mph77%29.80 "HgN/A
5:30 PM59 °FSprinkles. Partly sunny.6 mph77%29.80 "HgN/A
5:00 PM59 °FSprinkles. Partly sunny.6 mph77%29.80 "HgN/A
4:30 PM59 °FSprinkles. Partly sunny.6 mph77%29.80 "HgN/A
4:00 PM59 °FSprinkles. Partly sunny.6 mph77%29.83 "HgN/A
Weather by CustomWeather, © 2014

See weather overviewHow to use our weather pages